Location: Newark
(44.6303°N, 123.0961°W)
Time: 19:38:34
(UTC+00:00)

Envisat - Pass Details

Date: 27 January 2020
Orbit: 764 x 766 km, 98.1° (Epoch: 17 February)

Event Time Altitude Azimuth Distance (km) Brightness Sun altitude
Rises 13:19:39 0° 36° (NE) 3,240 6.7 -24.4°
Reaches altitude 10° 13:24:19 10° 75° (ENE) 2,305 6.4 -23.6°
Maximum altitude 13:25:18 11° 86° (E) 2,267 6.5 -23.4°
Drops below altitude 10° 13:26:17 10° 98° (E) 2,302 6.6 -23.2°
Sets 13:30:54 0° 137° (SE) 3,219 6.9 -22.4°
